Regional Weather Roundup
Issued by NWS

Home | Current Version | Previous Version | Graphics & Text | Print | Product List | Glossary On
Versions: 1 2 3 4 5 6 7 8 9 10 11 12 13 14 15 16 17 18 19 20 21 22 23 24 25 26 27 28 29 30 31 32 33 34 35 36 37 38 39 40 41 42 43 44 45 46 47 48 49 50
000
ASUS43 KTOP 290108
RWRKS

WEATHER ROUNDUP FOR KANSAS
NATIONAL WEATHER SERVICE GOODLAND KS
700 PM CST SUN DEC 28 2014

NOTE:  "FAIR" INDICATES FEW OR NO CLOUDS BELOW 12,000 FEET WITH NO
SIGNIFICANT WEATHER AND/OR OBSTRUCTIONS TO VISIBILITY.

KSZ001>006-013>018-027>032-041>047-290200-
NORTHWEST KANSAS

CITY           SKY/WX    TMP DP  RH WIND       PRES   REMARKS
GOODLAND       CLEAR     18  15  88 CALM      29.95R
HAYS           MOCLDY    30  18  59 SE8       30.04R
HILL CITY      CLOUDY    31  24  75 E6        30.03R
RUSSELL        MOCLDY    33  22  63 SE9       30.04R
$$

KSZ061>065-074>080-084>089-290200-
SOUTHWEST KANSAS

CITY           SKY/WX    TMP DP  RH WIND       PRES   REMARKS
DODGE CITY     CLEAR     27  17  66 SE8       29.98R
ELKHART          N/A     25  15  66 SE8         N/A
GARDEN CITY    CLEAR     30  17  58 S6        29.95R
GREAT BEND     PTCLDY    28  18  64 SE7       30.06R
LIBERAL        CLEAR     34  16  47 E5        29.95S
PRATT          CLEAR     32  19  59 SE6       30.05S
$$

KSZ066>073-081>083-090>101-290200-
SOUTHEAST KANSAS

CITY           SKY/WX    TMP DP  RH WIND       PRES   REMARKS
CHANUTE        CLEAR     30  19  63 SE3       30.16R
COFFEYVILLE    CLEAR     31  22  69 E6        30.17R
HUTCHINSON     PTCLDY    26  17  68 SE8       30.09R
MEDICINE LODGE   N/A     33  19  56 E7        30.05R
NEWTON         PTCLDY    30  16  55 S5        30.11R
PARSONS        CLEAR     28  23  81 CALM      30.17R
WICHITA INTL   CLEAR     32  19  58 S3        30.10R
WICHITA JABRA  CLEAR     32  18  56 S3        30.10R
WICHITA MCCONL CLEAR     33  19  56 CALM      30.10S
WINFIELD       CLEAR     33  18  53 E6        30.12R
$$

KSZ007>012-019>026-033>040-048>060-102>105-290200-
NORTHEAST KANSAS

CITY           SKY/WX    TMP DP  RH WIND       PRES   REMARKS
CONCORDIA      CLOUDY    34  22  61 CALM      30.09R
EMPORIA        PTCLDY    29  18  63 SE8       30.12S
LAWRENCE       MOCLDY    27  21  78 E3        30.17R
MANHATTAN      CLOUDY    30  22  72 CALM      30.12S
MARYSVILLE     CLOUDY    34  21  60 CALM      30.11S
OLATHE IND     MOCLDY    30  20  66 CALM      30.16R
OLATHE EXE     MOCLDY    31  19  61 CALM      30.15R
SALINA         MOCLDY    33  22  63 SE7       30.10R
TOPEKA BILLARD MOCLDY    35  22  58 S3        30.16R
TOPEKA FORBES  MOCLDY    32  21  64 SE6       30.14S
$$



USA.gov is the U.S. government's official web portal to all federal, state and local government web resources and services.